Villa Grove, CO

5:35 AM MST on December 08, 2016 (GMT -0700)
Monarch Pass

Weather History for KMYP - December, 2012

Change the Weather History Date:

Tuesday, December 11, 2012

  Actual Average (KGUC) Record (KGUC)
Temperature  
Mean Temperature 4 °F -  
Max Temperature 8 °F 25 °F 48 °F (2015)
Min Temperature 0 °F 1 °F -18 °F (2005)
Degree Days  
Heating Degree Days 61    
Moisture  
Dew Point 0 °F    
Average Humidity 84    
Maximum Humidity 92    
Minimum Humidity 78    
Precipitation  
Precipitation 0.00 in - - ()
Sea Level Pressure  
Sea Level Pressure 29.94 in    
Wind  
Wind Speed - (North)    
Max Wind Speed -    
Max Gust Speed -    
Averages and records for this station are not official NWS values.
T = Trace of Precipitation, MM = Missing Value Source: NWS Daily Summary

Daily Weather History Graph

Daily Weather History Graph

Search for Another Location

Airport or City:

Trip Planner

Search our weather history database for the weather conditions in past years. The results will help you decide how hot, cold, wet, or windy it might be!

Date:

Astronomy

Dec. 11, 2012 Rise Set
Actual Time 7:12 AM MST 4:44 PM MST
Civil Twilight 6:43 AM MST 5:14 PM MST
Nautical Twilight 6:10 AM MST 5:47 PM MST
Astronomical Twilight 5:37 AM MST 6:19 PM MST
Moon 5:11 AM MST (12/11) 3:25 PM MST (12/11)
Length of Visible Light 10h 30m
Length of Day
9h 31m
Waning Crescent, 4% of the Moon is Illuminated
Dec 11
Waning Crescent
Dec 13
New
Dec 19
First Quarter
Dec 28
Full
Jan 4
Last Quarter

Hourly Weather History & Observations

Time (MST) Temp. Dew Point Humidity Pressure Visibility Wind Dir Wind Speed Gust Speed Precip Events Conditions
12:16 AM 1.4 °F -4.0 °F 78% 29.90 in - North - - N/A   Overcast
12:36 AM 1.4 °F -4.0 °F 78% 29.89 in - North - - N/A   Unknown
12:56 AM 1.4 °F -4.0 °F 78% 29.90 in - North - - N/A   Overcast
1:16 AM 1.4 °F -4.0 °F 78% 29.89 in - North - - N/A   Overcast
1:36 AM 1.4 °F -4.0 °F 78% 29.88 in - North - - N/A   Overcast
1:56 AM 1.4 °F -4.0 °F 78% 29.88 in - North - - N/A   Overcast
2:16 AM 1.4 °F -4.0 °F 78% 29.89 in - North - - N/A   Overcast
2:36 AM 1.4 °F -4.0 °F 78% 29.87 in - North - - N/A   Overcast
2:56 AM 1.4 °F -4.0 °F 78% 29.87 in - North - - N/A   Overcast
3:16 AM 1.4 °F -4.0 °F 78% 29.88 in - North - - N/A   Overcast
3:36 AM 1.4 °F -4.0 °F 78% 29.88 in - North - - N/A   Overcast
3:56 AM -0.4 °F -4.0 °F 85% 29.89 in - North - - N/A   Unknown
4:16 AM -0.4 °F -4.0 °F 85% 29.89 in - North - - N/A   Overcast
4:36 AM 1.4 °F -4.0 °F 78% 29.88 in - North - - N/A   Overcast
4:56 AM -0.4 °F -4.0 °F 85% 29.88 in - North - - N/A   Overcast
5:16 AM -0.4 °F -4.0 °F 85% 29.86 in - North - - N/A   Overcast
5:36 AM -0.4 °F -4.0 °F 85% 29.86 in - North - - N/A   Overcast
5:56 AM -0.4 °F -4.0 °F 85% 29.87 in - North - - N/A   Overcast
6:16 AM -0.4 °F -4.0 °F 85% 29.87 in - North - - N/A   Overcast
6:36 AM 1.4 °F -4.0 °F 78% 29.88 in - North - - N/A   Overcast
6:56 AM 1.4 °F -4.0 °F 78% 29.89 in - North - - N/A   Overcast
7:16 AM 1.4 °F -4.0 °F 78% 29.91 in - North - - N/A   Overcast
7:36 AM -0.4 °F -4.0 °F 85% 29.92 in - North - - N/A   Overcast
7:56 AM -0.4 °F -4.0 °F 85% 29.92 in - North - - N/A   Overcast
8:16 AM -0.4 °F -5.8 °F 78% 29.92 in - North - - N/A   Overcast
8:36 AM -0.4 °F -4.0 °F 85% 29.93 in - North - - N/A   Overcast
8:56 AM -0.4 °F -4.0 °F 85% 29.94 in - North - - N/A   Overcast
9:16 AM 1.4 °F -4.0 °F 78% 29.95 in - North - - N/A   Overcast
9:36 AM 1.4 °F -4.0 °F 78% 29.97 in - North - - N/A   Overcast
9:56 AM 1.4 °F -2.2 °F 85% 29.97 in - North - - N/A   Overcast
10:16 AM 3.2 °F -2.2 °F 78% 29.99 in - North - - N/A   Overcast
10:36 AM 3.2 °F -0.4 °F 85% 29.99 in - North - - N/A   Overcast
10:55 AM 3.2 °F -0.4 °F 85% 29.99 in - North - - N/A   Overcast
11:16 AM 5.0 °F 1.4 °F 85% 29.99 in - North - - N/A   Overcast
11:36 AM 5.0 °F 1.4 °F 85% 29.98 in - North - - N/A   Overcast
11:56 AM 5.0 °F 1.4 °F 85% 29.98 in - North - - N/A   Overcast
12:16 PM 5.0 °F 1.4 °F 85% 29.98 in - North - - N/A   Overcast
12:36 PM 5.0 °F 1.4 °F 85% 29.97 in - North - - N/A   Overcast
12:56 PM 5.0 °F 1.4 °F 85% 29.96 in - North - - N/A   Overcast
1:16 PM 5.0 °F 1.4 °F 85% 29.95 in - North - - N/A   Overcast
1:36 PM 5.0 °F 3.2 °F 92% 29.93 in - North - - N/A   Overcast
1:56 PM 6.8 °F 3.2 °F 85% 29.93 in - North - - N/A   Mostly Cloudy
2:16 PM 6.8 °F 3.2 °F 85% 29.94 in - North - - N/A   Unknown
2:36 PM 6.8 °F 3.2 °F 85% 29.95 in - North - - N/A   Overcast
2:56 PM 8.6 °F 3.2 °F 79% 29.94 in - North - - N/A   Overcast
3:16 PM 8.6 °F 3.2 °F 79% 29.96 in - North - - N/A   Overcast
3:36 PM 8.6 °F 5.0 °F 85% 29.94 in - North - - N/A   Overcast
3:56 PM 8.6 °F 5.0 °F 85% 29.95 in - North - - N/A   Overcast
4:16 PM 8.6 °F 3.2 °F 79% 29.95 in - North - - N/A   Overcast
4:36 PM 8.6 °F 3.2 °F 79% 29.94 in - North - - N/A   Overcast
4:56 PM 8.6 °F 3.2 °F 79% 29.95 in - North - - N/A   Overcast
5:16 PM 6.8 °F 3.2 °F 85% 29.95 in - North - - N/A   Overcast
5:36 PM 6.8 °F 3.2 °F 85% 29.96 in - North - - N/A   Overcast
5:56 PM 6.8 °F 3.2 °F 85% 29.96 in - North - - N/A   Overcast
6:16 PM 6.8 °F 3.2 °F 85% 29.99 in - North - - N/A   Overcast
6:36 PM 6.8 °F 3.2 °F 85% 30.00 in - North - - N/A   Overcast
6:56 PM 6.8 °F 3.2 °F 85% 30.00 in - North - - N/A   Overcast
7:16 PM 6.8 °F 3.2 °F 85% 30.00 in - North - - N/A   Overcast
7:36 PM 5.0 °F 3.2 °F 92% 29.99 in - North - - N/A   Overcast
7:56 PM 5.0 °F 3.2 °F 92% 29.99 in - North - - N/A   Overcast
8:16 PM 6.8 °F 3.2 °F 85% 29.99 in - North - - N/A   Overcast
8:36 PM 5.0 °F 1.4 °F 85% 29.99 in - North - - N/A   Mostly Cloudy
8:56 PM 5.0 °F 3.2 °F 92% 29.99 in - North - - N/A   Mostly Cloudy
9:16 PM 5.0 °F 3.2 °F 92% 29.99 in - North - - N/A   Unknown
9:36 PM 5.0 °F 3.2 °F 92% 30.01 in - North - - N/A   Unknown
9:56 PM 6.8 °F 3.2 °F 85% 30.01 in - North - - N/A   Mostly Cloudy
10:16 PM 5.0 °F 3.2 °F 92% 30.02 in - North - - N/A   Mostly Cloudy
10:36 PM 5.0 °F 3.2 °F 92% 30.02 in - North - - N/A   Unknown
10:56 PM 6.8 °F 3.2 °F 85% 30.02 in - North - - N/A   Unknown
11:16 PM 6.8 °F 3.2 °F 85% 30.02 in - North - - N/A   Unknown
11:36 PM 6.8 °F 3.2 °F 85% 30.02 in - North - - N/A   Unknown
11:56 PM 6.8 °F 3.2 °F 85% 30.02 in - North - - N/A   Unknown